Domov               UVHVVR             MKGP            O straneh              
ZDRAVSTVENO VARSTVO RASTLIN
  MREŽA AGROMET. POSTAJ
 ► PROGNOSTIČNA OBVESTILA
AGROMETEOROLOŠKI PODATKI -
ARSO
OBVLADOVANJE TVEGANJ ZARADI
NEUGODNIH VREMENSKIH RAZMER
  ► NARAVNE NESREČE
  ► SUŠA/MOČA
  ► NAMAKANJE
  ► ŽLED (gozdarstvo)
KARTOGRAFSKI PRIKAZI
SPLETNE POVEZAVE
PROJEKTI IN PUBLIKACIJE

AGROMETEOROLOŠKA MREŽA: VREMENSKE POSTAJE IN FENOLOŠKA OPAZOVANJA

Pregled podatkov za lokacijo Braslovče (Pšaker), meteorološka postaja 39323

Pregled senzorjev na lokaciji

ID Ime Zadnja
vrednost
Datum
zadnje
spremembe
Tip
senzorja
1914 Temperatura 2 m ( °C) 28,11 °C 17.8.2017 18:00 50YA
1915 Relativna vlaga 2 m (% RH) 52,94 % RH 17.8.2017 18:00 50YA
2040 Padavine 0.2 mm (mm) 0 mm 17.8.2017 18:00 Rain-O-Matic
2041 Omočenost lista (U) 0 U 17.8.2017 18:00 A730WET

Pregled podatkov zadnjih 24 ur

Zap.
št.
Datum in čas Braslovče (Pšaker)
Omočenost
lista
Padavine
0.2
mm
Relativna
vlaga
2
m
Temperatura
2
m
0 17.8.2017 17:00 0 0 52,94 28,11
1 17.8.2017 16:30 0 0 47,52 29,67
2 17.8.2017 16:00 0 0 46,64 29,87
3 17.8.2017 15:30 0 0 46,74 29,16
4 17.8.2017 15:00 0 0 47,47 28,77
5 17.8.2017 14:30 0 0 46,15 28,89
6 17.8.2017 14:00 0 0 46,76 29,01
7 17.8.2017 13:30 0 0 46,03 28,91
8 17.8.2017 13:00 0 0 47,69 28,52
9 17.8.2017 12:30 0 0 51,23 27,72
10 17.8.2017 12:00 0 0 52,87 27,45
11 17.8.2017 11:30 0 0 56,8 26,45
12 17.8.2017 11:00 0 0 59,29 25,79
13 17.8.2017 10:30 0 0 59,07 25,84
14 17.8.2017 10:00 0 0 62,17 25,05
15 17.8.2017 09:30 0 0 67,72 23,57
16 17.8.2017 09:00 0 0 67,84 23,54
17 17.8.2017 08:30 0 0 71,77 22,76
18 17.8.2017 08:00 0 0 74,33 21,61
19 17.8.2017 07:30 10 0 77,44 20,76
20 17.8.2017 07:00 10 0 83,22 19,12
21 17.8.2017 06:30 10 0 92,36 16,92
22 17.8.2017 06:00 10 0 99,24 15,02
23 17.8.2017 05:30 10 0 99,93 14,16
24 17.8.2017 05:00 10 0 99,93 14,14
25 17.8.2017 04:30 10 0 99,9 14,26
26 17.8.2017 04:00 10 0 99,88 14,36
27 17.8.2017 03:30 10 0 99,78 14,55
28 17.8.2017 03:00 10 0 99,46 14,85
29 17.8.2017 02:30 10 0 98,83 15,24
30 17.8.2017 02:00 10 0 97,97 15,73
31 17.8.2017 01:30 10 0 99,02 16,02
32 17.8.2017 01:00 10 0 99,63 16,04
33 17.8.2017 00:30 10 0 99,05 15,95
34 17.8.2017 00:00 10 0 98,02 16,31
35 16.8.2017 23:30 10 0 97,39 16,75
36 16.8.2017 23:00 10 0 97,78 17,02
37 16.8.2017 22:30 10 0 98,14 17,24
38 16.8.2017 22:00 10 0 97,56 17,61
39 16.8.2017 21:30 10 0 96,43 17,97
40 16.8.2017 21:00 10 0 96,48 18,19
41 16.8.2017 20:30 10 0 95,78 18,9
42 16.8.2017 20:00 10 0 94,31 19,37
43 16.8.2017 19:30 10 0,2 91,77 19,56
© 2011 Ministrstvo za kmetijstvo, gozdarstvo in prehrano. Vse pravice pridržane.